{"data":{"norad_id":66867,"epoch":"2026-09-20T21:10:52.805568Z","epoch_age_seconds":50963,"freshness":"FRESH","line1":"1 66867U 25281V   26263.88255562  .00005688  00000+0  21600-3 0  9999","line2":"2 66867  42.9990 321.4811 0000648 269.2577  90.8201 15.27588290 46023","mean_motion":15.2758829,"eccentricity":6.48e-5,"inclination_deg":42.999,"raan_deg":321.4811,"arg_perigee_deg":269.2577,"mean_anomaly_deg":90.8201,"bstar":0.000216,"rev_number":4602,"period_min":94.266237141684,"perigee_km":482.57966965912,"apogee_km":483.46887616009,"semimajor_km":6861.1612729096,"source":"CELESTRAK","updated_at":"2026-09-21T09:00:36.029684Z"}}